Theta_e
317 315 315 314 314 313 312 312 312 310 309 309 306 307 304 299 300 309 314 314 307 295 290 301 299 295 295 298 296 296 296 295 296 296 296 296 296 295 294 295 294 295 294 293 292 290 289 291 290 291 291 292 295 295 293 293 294 290 289 294 294 312 289 288 291 291 293 296 294 297 298 295 294 294 291 293 293 291 292 290 296 298 298 296 292 292 296
316 315 314 314 313 312 312 312 312 311 309 306 306 302 301 301 303 306 314 310 303 297 294 292 290 296 300 296 296 296 298 296 295 295 296 295 294 294 295 295 296 297 295 295 294 295 288 293 291 291 293 292 295 294 294 296 296 295 295 293 297 293 291 290 288 284 286 287 289 292 295 295 292 293 292 296 300 300 297 301 300 299 299 297 295 290 296
316 315 314 314 313 312 312 311 311 311 310 309 306 307 304 303 304 307 310 311 302 298 293 292 291 293 293 292 291 293 296 296 297 296 295 297 296 296 295 296 296 295 296 296 297 297 292 291 295 292 295 296 298 295 294 301 301 304 303 315 304 293 295 291 285 283 282 283 281 284 287 289 291 293 291 297 302 301 300 298 295 289 298 297 293 291 303
316 315 314 314 313 313 312 312 311 311 309 307 308 306 303 300 296 300 300 304 297 297 298 294 293 293 295 291 292 292 292 296 297 297 297 297 296 297 298 298 296 295 295 295 296 296 297 293 293 292 293 294 296 296 295 300 302 317 316 313 302 294 298 294 290 287 285 287 288 291 300 290 289 293 292 292 299 302 299 296 293 292 295 298 295 299 306
316 315 314 314 313 313 312 311 311 311 308 308 308 305 304 301 297 297 295 302 297 296 293 295 294 293 293 289 292 291 292 293 295 296 296 298 296 297 298 297 295 295 295 295 294 295 295 295 293 292 294 294 295 296 297 298 309 318 310 309 296 290 289 296 298 295 294 295 295 295 297 291 290 290 291 293 297 300 299 295 291 296 299 291 295 305 307
316 315 315 314 313 313 313 312 311 310 307 307 306 302 301 294 299 303 306 293 294 290 295 298 295 297 294 293 293 292 290 291 291 294 296 296 298 295 297 296 295 295 296 293 291 292 293 293 292 293 295 292 294 295 298 297 304 305 296 302 295 289 290 296 297 295 296 296 296 295 292 291 291 291 292 295 294 299 298 296 298 303 297 295 298 306 307
316 315 315 315 314 314 314 313 310 309 307 306 306 301 303 302 302 303 309 298 296 295 302 303 298 297 298 297 294 291 291 291 293 293 292 293 295 295 290 292 293 293 295 292 290 291 287 290 294 293 293 293 292 291 293 296 296 297 294 296 296 289 288 297 295 294 295 295 295 295 293 291 290 292 294 298 301 300 300 301 302 302 298 298 303 307 307
316 315 315 315 315 314 314 313 311 309 307 309 309 305 301 300 301 301 305 302 301 303 297 297 294 292 298 291 294 293 293 293 293 294 292 291 294 296 293 294 293 292 293 293 290 294 293 294 292 295 294 291 293 291 292 291 295 295 294 297 296 291 289 301 294 290 293 295 296 295 294 291 291 291 294 295 296 303 304 304 305 306 304 305 307 306 307
316 315 315 315 315 314 314 313 311 310 308 309 305 307 309 308 305 307 301 296 299 304 296 293 293 289 292 289 296 298 294 293 295 294 296 296 296 296 295 295 295 293 292 292 293 295 295 295 295 296 296 292 296 292 292 295 293 293 292 294 295 293 290 293 290 288 290 294 295 295 294 291 289 291 294 294 295 299 301 301 305 301 302 305 305 304 306
316 316 315 315 315 314 314 313 312 310 309 307 302 307 308 307 308 307 301 296 301 295 297 293 291 290 291 294 296 296 294 296 293 291 295 294 297 296 296 296 292 291 292 292 294 295 295 297 297 295 296 297 299 297 296 294 295 293 293 294 291 291 287 287 288 286 286 291 296 295 292 287 287 291 293 294 295 296 301 305 309 308 308 305 302 304 312
316 315 315 315 315 315 315 314 313 311 308 307 305 306 308 307 307 305 297 293 294 296 291 291 292 296 295 297 295 295 295 295 294 290 291 295 296 297 295 295 291 289 292 297 299 297 297 296 297 297 297 296 295 293 294 296 298 295 294 290 292 294 287 287 288 285 285 290 294 294 289 282 285 294 297 297 296 301 303 302 304 307 306 304 307 309 314
316 316 315 314 315 315 314 314 313 311 309 305 304 304 308 309 303 300 294 292 294 296 291 293 293 296 296 297 296 295 295 295 296 295 294 294 296 296 296 293 290 290 296 298 300 300 301 302 300 298 297 296 295 295 295 294 294 299 294 293 290 293 287 287 286 285 284 288 292 290 284 285 293 297 302 305 300 305 304 302 303 305 307 308 310 312 313
316 315 315 315 314 315 314 314 313 312 311 307 306 308 310 311 307 302 296 294 294 295 292 294 297 296 296 297 296 297 298 299 300 299 295 297 297 296 297 296 296 297 301 299 299 297 295 293 293 293 294 293 293 295 296 295 295 295 294 294 291 289 288 288 288 285 285 283 284 279 283 292 296 297 300 308 307 307 304 304 305 305 306 309 310 313 313
316 315 315 315 314 314 315 314 313 313 311 308 303 303 305 307 307 303 300 293 295 295 294 295 297 297 299 298 297 298 297 298 297 298 297 299 296 297 298 302 300 300 302 300 297 291 291 287 285 286 290 287 289 289 294 295 296 294 294 294 294 292 289 286 285 287 283 282 282 286 292 294 294 296 297 297 296 299 301 296 299 305 306 308 311 311 313
316 315 315 315 314 314 315 314 314 314 312 309 304 303 306 310 308 305 302 296 295 297 295 293 296 299 299 298 296 294 294 294 296 296 297 301 300 301 301 302 302 302 299 297 293 291 289 285 283 281 283 282 283 285 290 293 296 296 295 294 293 291 292 289 285 287 282 282 282 282 285 284 290 298 302 303 302 303 305 303 299 304 307 309 311 310 311
316 315 315 314 314 314 314 314 314 314 312 309 306 302 306 311 309 306 305 298 291 291 295 302 303 301 297 298 299 296 295 292 293 290 292 294 300 302 303 304 303 303 300 295 291 289 288 286 283 281 285 285 288 288 286 291 291 294 295 294 294 293 291 287 286 285 285 281 279 279 282 285 294 297 301 302 303 301 306 301 295 302 307 309 311 310 311
316 315 315 314 314 314 314 314 314 313 312 309 306 304 309 312 311 308 305 300 296 296 297 305 303 301 292 295 295 295 294 294 294 294 293 294 298 299 302 305 301 304 298 293 291 288 286 285 282 282 284 289 287 287 288 286 286 287 294 292 290 290 288 284 284 285 287 280 281 281 283 287 296 299 302 304 305 303 302 289 290 300 308 310 311 310 310
317 316 315 314 314 314 314 314 313 314 312 311 307 305 307 310 311 307 302 296 295 298 299 305 300 295 295 294 294 298 298 296 295 293 293 296 297 299 301 302 300 300 303 295 291 285 284 284 286 284 285 292 294 290 283 289 286 287 287 288 285 286 287 285 285 284 290 290 281 282 285 293 299 300 302 303 304 299 292 286 294 305 308 310 312 311 312
317 315 315 314 314 314 314 313 313 313 313 309 308 307 308 308 313 306 302 298 294 295 300 305 307 302 304 303 301 300 300 300 296 294 293 293 299 301 303 302 302 297 298 291 288 287 286 288 288 284 286 288 289 285 289 286 286 289 288 285 285 285 287 290 283 284 284 282 284 283 284 290 297 302 302 303 301 291 287 296 301 304 308 309 312 311 311
316 315 314 314 313 313 313 313 313 313 313 311 308 305 309 307 311 312 305 298 296 298 300 305 307 305 308 301 298 298 299 298 294 292 289 293 298 299 296 293 297 296 294 290 289 289 286 288 288 288 284 285 288 292 286 288 290 290 288 291 286 288 284 283 283 284 284 280 283 280 280 290 300 300 299 303 296 294 297 300 304 308 310 310 310 311 310
316 315 314 313 313 313 313 313 312 313 313 312 307 304 305 308 309 313 309 300 297 297 299 304 309 308 308 307 303 302 299 299 297 298 296 296 299 291 283 289 294 293 293 289 288 290 287 287 288 290 291 290 290 289 286 284 287 293 294 290 289 294 287 283 283 287 284 281 281 281 288 295 300 299 293 297 302 303 303 302 303 309 310 310 309 310 310
316 314 313 313 312 313 313 313 312 312 313 312 308 302 300 302 308 314 313 305 300 299 301 305 309 309 310 312 312 304 303 303 302 302 299 298 298 298 293 295 293 295 297 293 292 291 291 290 290 287 289 289 287 287 286 282 284 288 292 291 285 292 291 288 286 290 288 286 285 289 293 297 300 301 299 301 304 304 304 303 304 308 309 310 310 310 309
315 314 313 312 312 312 313 312 312 312 312 313 309 302 301 303 308 313 308 307 305 306 307 307 307 307 318 320 321 313 306 308 306 304 304 302 299 299 298 297 300 302 301 296 295 291 292 289 292 289 287 290 290 287 287 285 286 287 289 293 292 298 297 293 294 291 295 297 297 299 299 300 302 303 303 302 303 304 304 302 305 304 304 309 310 309 309
315 313 312 312 312 312 312 312 312 312 312 313 311 306 305 303 306 310 307 303 301 303 305 305 302 303 303 305 310 308 309 309 313 308 308 307 299 297 299 302 304 301 301 301 296 295 292 290 293 289 288 290 287 285 286 284 287 289 290 291 293 294 296 294 292 293 289 288 295 298 299 300 301 303 304 305 304 303 303 303 303 304 306 305 307 308 308
314 312 312 312 312 312 312 312 312 312 312 312 311 308 307 305 304 307 304 302 299 293 296 298 302 310 312 313 313 307 307 314 313 309 308 307 306 298 299 305 306 302 301 302 299 299 294 295 294 290 289 293 292 286 288 288 287 291 286 286 288 292 300 292 293 292 290 292 295 298 301 301 302 302 302 302 303 303 303 303 306 309 309 310 309 310 309
314 312 312 312 312 312 312 312 312 312 312 312 312 305 303 303 306 307 308 305 301 296 297 297 304 311 312 310 308 310 310 310 312 314 313 308 307 308 308 307 305 307 305 304 301 298 294 293 290 289 287 292 293 288 288 289 290 292 291 290 293 295 300 291 293 292 293 293 294 300 299 300 300 303 304 304 303 303 302 302 304 306 309 310 312 312 310
314 313 312 312 311 311 312 312 312 312 312 312 310 306 306 306 306 306 306 307 302 300 297 298 301 306 310 308 314 311 312 310 312 312 312 312 311 310 309 306 305 302 301 301 300 296 293 291 290 292 289 294 295 293 293 294 292 292 291 292 295 295 290 291 291 288 284 290 294 297 294 294 299 301 303 304 305 303 303 304 303 302 303 307 310 312 314
315 313 312 311 311 311 312 312 313 312 312 312 309 307 306 306 307 307 308 307 306 298 296 297 298 304 308 308 314 312 315 315 313 312 311 311 310 309 308 306 302 301 298 297 298 295 290 291 294 293 292 296 295 293 293 294 292 288 287 290 294 293 293 290 290 286 288 292 295 297 298 298 300 301 303 305 305 304 303 303 304 304 303 303 305 308 309
315 314 312 311 310 311 312 313 314 313 312 309 304 305 307 307 309 311 312 313 304 298 297 300 302 301 300 304 312 311 314 312 312 311 311 311 311 310 308 306 302 299 298 297 295 292 290 294 294 293 294 296 292 290 292 288 285 285 289 295 295 296 296 296 297 293 294 296 298 299 299 298 301 303 304 305 305 304 304 305 306 306 306 305 304 305 307
314 313 312 312 311 311 312 313 314 313 312 305 303 299 299 307 308 309 312 314 306 303 300 297 297 301 306 311 309 310 313 313 312 311 310 309 309 308 305 305 305 306 300 298 293 294 293 291 292 295 299 299 293 289 287 284 284 287 291 293 297 297 298 300 299 297 296 301 300 300 301 302 302 303 305 305 307 307 305 305 307 306 306 305 303 303 304
315 313 312 312 311 311 312 313 314 314 309 305 302 297 293 297 306 311 311 311 309 306 300 295 297 301 304 312 310 308 311 313 310 311 310 308 307 307 306 305 305 306 296 292 292 295 294 292 291 296 297 303 296 287 286 285 285 282 293 296 296 296 296 298 299 300 301 301 302 301 302 302 303 303 303 305 306 306 307 307 310 313 309 305 303 303 303
314 313 312 312 311 312 313 313 314 314 308 306 306 303 304 305 308 310 312 311 309 306 300 297 297 297 297 301 307 316 314 314 315 309 307 311 305 306 307 305 304 304 303 296 300 297 294 294 294 296 294 301 298 288 287 283 284 286 292 295 296 297 298 297 299 300 300 301 300 298 297 298 300 301 300 303 305 306 307 307 308 307 311 307 304 303 303
314 313 312 312 312 313 313 314 314 312 309 309 311 312 312 312 312 312 312 308 307 302 298 293 294 295 295 299 304 310 316 308 305 301 304 308 305 301 301 306 300 301 312 301 291 292 294 289 289 293 297 296 294 290 286 285 285 291 295 298 297 297 298 300 301 300 300 299 299 296 295 297 299 302 303 304 305 305 306 306 308 308 308 307 305 304 303
314 313 313 312 313 313 313 313 313 312 310 307 306 307 310 313 310 310 307 308 306 304 300 297 294 292 295 299 300 305 309 301 300 297 298 306 302 299 300 299 301 299 299 295 294 295 297 300 292 293 295 295 291 286 285 288 290 292 295 296 296 297 297 297 298 300 300 299 300 301 300 301 301 301 302 302 303 304 307 305 306 305 306 307 305 303 302
314 313 313 313 313 313 313 312 308 308 304 305 304 307 307 312 311 311 314 307 301 300 298 299 291 288 292 293 292 298 305 304 301 298 297 301 307 300 298 295 294 293 295 300 294 291 293 295 294 293 289 291 287 282 285 288 291 291 294 297 298 296 296 297 298 298 299 298 298 298 299 299 299 299 299 301 302 303 303 304 305 305 304 304 305 305 305
314 313 313 313 313 312 310 311 311 310 306 305 308 317 317 314 313 309 311 311 308 298 295 295 295 292 290 289 290 299 309 300 300 299 299 301 300 301 297 295 293 295 300 294 291 290 292 300 295 288 288 283 284 287 288 290 293 295 295 297 297 298 298 299 299 299 298 297 297 297 298 298 297 297 298 300 301 302 302 302 302 303 303 303 304 305 305
313 313 313 312 309 311 304 307 312 310 308 310 313 319 318 319 313 313 310 307 307 308 299 294 294 294 291 292 292 299 301 295 295 296 295 295 296 298 293 291 288 298 293 290 292 291 295 301 287 286 282 278 281 289 292 294 295 295 296 297 300 299 298 298 302 300 297 295 295 296 296 295 297 296 298 299 299 300 301 301 301 301 301 302 303 305 304
312 311 306 306 304 301 303 305 307 312 318 317 318 309 305 308 303 305 303 302 303 310 300 297 294 293 297 295 295 302 298 294 295 295 295 296 295 295 294 292 292 299 288 289 291 295 293 289 287 285 286 290 292 295 296 297 299 298 298 299 297 299 299 299 299 297 295 295 294 295 297 295 295 295 297 298 298 299 300 300 301 302 302 304 304 305 307
308 306 307 303 302 300 301 306 312 317 314 314 309 305 301 301 297 297 302 300 300 298 297 297 294 294 295 295 296 301 299 295 293 292 293 297 295 291 295 291 294 293 281 286 292 299 290 285 285 283 286 290 293 297 297 297 297 299 300 300 300 299 300 299 299 297 296 296 296 297 296 297 297 297 296 297 298 298 299 299 300 302 303 303 304 306 306
304 301 300 298 300 304 312 311 312 312 311 303 301 299 298 299 294 292 296 292 288 293 299 295 296 296 299 298 298 298 306 297 292 290 289 294 296 290 294 289 290 290 284 282 287 293 286 280 283 280 282 287 290 294 297 299 300 299 298 299 300 300 299 298 300 298 298 298 297 297 297 296 297 297 297 298 298 299 299 300 301 301 302 303 307 307 305
300 300 301 302 303 302 303 305 307 305 299 292 293 295 293 292 296 296 295 289 288 291 299 297 299 299 301 298 298 296 303 307 298 294 292 292 298 297 289 288 295 287 284 281 291 292 285 282 280 280 284 287 290 296 298 297 297 299 298 299 299 298 298 297 297 298 297 296 297 296 295 298 300 298 297 298 298 297 299 299 300 301 302 302 302 303 305
302 301 301 302 303 303 304 305 302 300 299 296 292 288 288 293 297 295 296 292 292 295 298 300 298 295 297 302 299 298 301 303 301 302 293 292 298 293 289 290 291 286 281 285 292 285 284 278 270 277 286 287 291 294 295 297 299 298 297 297 301 298 295 294 295 295 296 296 295 294 294 294 294 295 296 296 297 297 298 299 300 300 301 301 303 303 304
309 307 304 299 298 300 300 294 297 295 289 290 285 287 287 286 290 292 293 296 300 297 297 304 303 302 305 306 302 304 301 305 299 297 292 290 296 292 287 285 286 282 287 294 288 284 279 270 272 284 286 290 294 296 296 296 296 295 295 295 294 295 295 295 295 295 295 295 296 295 294 294 295 295 297 297 297 297 298 301 303 302 301 301 301 302 303
306 306 303 299 297 298 299 291 300 299 291 286 285 284 286 287 289 293 293 293 297 297 297 299 300 299 297 302 301 300 300 300 300 293 293 293 290 289 287 285 285 288 294 288 286 281 282 284 288 288 289 292 296 295 296 296 294 294 295 295 295 294 294 294 294 294 295 294 294 295 295 295 295 296 295 295 297 296 297 298 300 303 303 302 301 301 302
300 292 286 291 290 293 290 287 289 286 287 286 288 288 288 290 289 287 291 295 299 299 300 300 300 300 302 304 302 301 299 296 299 294 291 293 288 285 287 285 287 290 287 284 284 284 285 286 290 291 291 293 295 296 296 294 294 294 294 294 294 295 294 294 294 294 293 294 294 295 294 295 295 295 295 295 296 296 296 297 298 300 299 299 299 300 301
291 286 286 288 286 286 285 283 282 287 290 291 291 291 289 291 289 292 297 301 299 300 301 303 303 304 301 303 299 297 299 297 295 294 293 289 287 286 290 292 290 286 284 283 281 280 284 287 287 291 293 295 295 294 293 293 293 293 293 293 293 294 293 294 293 293 293 294 294 294 294 294 294 294 294 295 295 296 296 296 297 297 298 298 299 300 301
296 296 285 285 285 285 290 286 285 289 293 293 295 296 296 297 297 298 299 302 301 301 303 304 303 303 300 299 299 297 297 296 294 295 292 290 288 289 295 289 286 283 280 278 281 283 284 286 286 291 294 294 293 292 292 292 293 292 291 293 295 294 292 293 293 293 294 294 294 294 294 294 295 295 296 295 295 296 297 299 298 298 298 299 300 301 301
289 287 291 289 286 286 287 290 292 294 295 298 297 297 300 302 301 299 301 303 304 303 303 302 301 301 301 300 299 294 295 294 294 293 295 292 290 286 281 285 284 283 283 282 284 284 285 286 289 293 294 294 293 292 292 292 292 292 293 293 292 292 292 292 293 293 294 294 294 294 294 295 295 296 296 296 296 297 297 297 297 297 297 298 299 300 300
291 287 289 284 286 289 290 293 294 294 295 294 296 298 301 301 300 302 303 304 303 303 304 300 301 297 294 296 294 292 293 293 290 288 293 288 286 283 283 279 283 280 286 288 286 285 287 288 293 294 293 292 292 293 292 293 293 293 294 292 292 293 293 293 294 295 296 295 294 295 296 297 297 297 296 296 295 296 297 296 296 296 297 298 298 299 299
294 292 292 288 291 290 291 294 294 291 291 293 294 296 298 298 299 303 305 304 303 303 302 301 300 296 294 295 288 285 285 289 293 287 286 285 286 285 284 281 281 282 280 284 286 287 289 291 294 293 292 293 295 292 292 292 297 296 293 293 293 293 293 294 295 295 295 295 296 296 297 297 296 295 295 295 297 297 297 297 297 297 297 298 298 298 299
292 290 288 292 292 288 291 290 289 289 290 292 293 294 297 299 299 300 304 304 303 300 299 296 293 291 290 285 282 286 286 289 290 288 287 286 288 286 284 282 282 284 285 288 289 290 291 293 294 293 292 293 293 292 292 294 296 294 293 293 293 293 294 295 295 295 296 295 296 300 297 296 296 296 297 298 297 297 297 298 299 298 298 298 298 298 298
288 289 290 293 296 295 297 295 294 295 296 297 296 296 298 298 300 301 305 305 303 299 296 295 292 287 285 286 287 289 291 288 286 288 287 288 289 285 283 282 283 286 288 289 289 291 294 293 294 296 293 294 295 292 292 294 294 293 293 293 294 294 296 294 294 295 295 296 296 295 296 297 298 298 298 298 298 297 296 296 298 299 299 298 298 298 298
Wind_Speed
20 21 21 21 22 22 22 22 23 23 23 5 5 1 3 3 1 3 1 3 3 3 2 1 2 1 1 2 2 1 1 1 3 3 5 4 3 2 4 1 1 1 0 0 3 2 2 2 1 0 0 0 1 5 8 4 3 2 2 1 1 2 3 3 4 6 5 4 3 1 1 1 3 4 3 1 2 4 6 6 7 7 2 2 2 0 2
20 20 21 21 22 22 22 21 21 20 17 2 3 3 2 0 1 4 2 1 4 3 1 3 5 2 2 2 0 3 1 3 5 4 4 2 3 2 1 3 2 1 2 2 2 2 2 2 2 1 0 1 2 6 7 5 3 2 0 1 2 0 2 2 2 2 3 4 3 7 7 6 3 2 3 1 3 5 3 7 3 5 5 6 8 6 3
19 20 20 21 22 23 22 21 20 20 16 3 0 2 1 0 1 1 7 6 5 1 3 2 0 2 2 1 4 4 3 1 1 1 3 2 2 1 2 0 2 1 1 2 1 5 2 1 2 1 0 1 3 7 9 6 4 1 2 3 0 7 1 1 2 2 3 1 2 3 5 4 6 2 2 1 4 8 4 3 1 3 1 3 3 2 2
19 20 20 21 22 23 23 21 20 19 15 6 1 1 2 2 1 5 4 6 6 3 0 1 2 2 0 5 2 1 1 1 3 3 3 3 2 4 1 2 3 3 3 5 6 7 5 5 1 3 4 3 3 2 8 8 4 7 5 4 3 2 1 3 2 6 6 3 4 5 1 3 2 4 4 2 2 2 5 5 4 5 4 5 4 6 9
19 19 20 20 22 23 23 23 21 19 13 3 1 2 2 1 4 1 1 6 6 1 3 2 2 1 2 3 0 4 2 1 2 5 2 6 2 2 7 4 3 3 3 1 3 4 2 4 3 4 2 3 2 7 4 7 12 12 3 6 4 3 5 5 2 3 2 4 5 6 2 2 1 4 5 6 1 3 5 7 4 5 11 4 1 8 17
19 20 21 20 21 22 23 24 23 20 12 2 0 2 3 2 1 1 1 2 1 3 3 6 3 2 2 1 0 2 3 4 1 3 2 0 4 2 5 9 5 1 0 3 3 5 3 4 3 4 1 2 6 5 6 6 8 6 3 4 4 3 2 3 1 1 0 0 1 4 5 1 0 4 4 6 6 2 5 3 4 11 7 9 6 11 13
18 21 23 21 20 22 23 24 25 22 14 2 1 4 2 3 1 1 0 0 1 2 3 2 1 6 3 2 3 2 3 4 0 0 3 4 4 3 2 4 6 6 3 3 2 1 2 3 2 1 4 2 4 5 5 2 8 6 4 5 2 3 1 1 1 3 2 5 6 7 9 5 2 6 6 6 6 3 1 3 3 4 1 2 9 12 3
19 20 21 22 20 21 22 23 25 25 17 2 5 4 1 3 2 1 4 3 1 1 2 1 3 6 3 3 1 1 1 2 2 2 3 1 2 2 5 0 3 6 6 4 4 0 2 2 1 1 1 3 2 1 1 3 6 5 3 1 2 3 1 5 2 2 3 5 9 9 7 5 2 5 8 9 6 4 2 2 3 5 5 4 11 9 5
19 20 20 21 19 20 21 21 24 26 19 5 5 2 3 1 1 1 1 1 3 1 3 2 3 4 4 4 0 3 1 4 1 2 0 1 1 1 2 2 1 2 5 6 2 2 2 3 2 3 1 1 1 1 2 1 2 6 4 4 4 6 1 3 3 1 2 5 10 8 9 4 3 8 13 11 9 4 3 2 2 3 5 9 10 8 5
18 19 20 21 18 19 20 19 22 23 18 5 2 4 2 1 0 2 1 1 2 2 2 1 3 4 2 2 1 2 1 2 1 3 3 3 1 2 2 2 5 3 6 4 3 4 4 7 7 5 5 3 2 2 1 1 0 2 1 0 2 1 1 3 3 1 1 6 7 6 6 5 5 9 8 6 4 3 3 1 3 0 14 11 11 10 10
18 18 20 20 18 19 19 19 19 20 11 6 4 2 2 2 2 3 2 3 3 3 1 3 6 2 0 3 3 3 2 2 1 3 1 2 1 2 3 2 3 1 1 2 3 3 6 3 1 0 1 1 3 3 2 3 1 2 1 1 1 1 4 1 1 1 3 7 8 2 5 5 1 2 3 3 3 1 1 2 2 4 3 2 1 2 11
17 17 20 19 18 18 17 17 16 16 11 3 0 2 1 1 3 1 2 5 0 3 4 2 0 0 2 0 3 1 4 4 1 2 6 1 1 1 5 4 4 2 3 1 4 2 0 1 2 2 3 6 4 4 7 7 4 3 0 3 1 1 2 1 1 1 2 5 4 0 0 7 6 3 4 5 2 3 8 3 4 4 6 2 8 11 11
17 17 18 18 19 17 17 16 16 15 13 4 1 3 2 0 1 1 3 5 3 3 3 2 2 1 2 4 5 2 1 0 1 2 2 2 1 2 1 1 1 1 1 2 5 5 2 1 1 1 2 5 3 7 11 9 8 7 5 3 3 1 3 2 2 1 1 2 3 2 8 5 3 4 4 4 2 0 5 4 3 5 4 2 8 12 13
16 17 17 17 18 18 17 17 17 16 15 7 0 1 2 0 1 2 1 3 1 1 1 2 5 4 4 4 4 1 1 4 3 2 3 1 1 2 1 1 1 4 1 3 6 3 2 5 2 2 2 6 2 3 3 2 4 8 8 8 3 8 4 3 1 0 1 1 2 6 5 4 3 3 4 4 2 4 2 2 1 3 3 4 10 10 13
16 16 16 16 17 18 17 17 17 17 16 13 0 2 2 2 1 3 2 3 4 0 1 3 1 1 1 1 1 4 4 1 4 2 2 2 1 0 0 2 2 4 1 2 2 6 2 2 2 2 3 3 1 1 3 1 4 4 4 4 5 2 1 1 3 1 3 2 0 2 1 3 2 3 3 2 2 4 5 3 3 1 2 4 11 14 14
15 16 15 16 16 17 18 18 17 16 17 15 3 3 3 2 0 2 2 3 4 3 2 1 2 1 2 1 0 3 2 2 0 1 3 4 1 4 1 2 2 2 5 6 2 4 2 2 1 2 1 0 1 0 0 3 3 3 4 5 7 7 8 6 3 1 1 2 1 2 4 5 3 7 7 7 4 5 1 1 5 2 1 6 10 12 14
15 15 15 15 16 16 18 18 18 16 15 15 6 3 2 3 3 0 1 2 3 1 2 1 2 2 3 2 2 3 1 1 1 1 1 1 2 3 7 5 2 6 3 4 6 3 4 5 2 1 1 1 1 0 0 2 2 3 8 7 8 7 5 5 4 2 0 3 1 2 3 0 5 8 7 9 9 5 2 2 4 1 3 8 10 13 14
15 15 14 14 15 16 18 18 18 16 15 15 5 1 3 3 2 1 3 3 2 1 1 3 2 2 2 3 2 1 2 1 3 2 2 1 1 2 3 4 4 2 2 3 1 5 3 2 2 1 1 0 0 1 1 0 0 1 2 1 2 3 2 5 1 1 0 1 1 2 3 3 5 8 14 13 7 2 2 5 1 3 2 6 10 11 10
13 13 13 14 15 15 17 17 17 17 15 15 7 1 2 2 5 2 5 3 3 2 4 2 2 2 1 2 3 2 1 1 2 3 0 2 0 1 1 0 0 1 7 3 5 3 2 0 0 1 1 3 2 1 1 1 1 1 1 2 2 2 0 0 2 2 1 1 1 4 3 3 4 12 11 5 1 2 3 2 1 5 5 5 9 13 11
12 12 12 13 14 15 16 15 16 16 16 14 8 1 5 4 3 4 2 1 1 1 2 1 1 1 0 2 2 2 1 4 2 4 3 1 2 1 1 2 3 2 2 3 2 1 2 1 0 0 1 0 1 2 2 0 0 0 0 0 1 0 0 0 0 1 1 2 1 3 0 1 5 15 5 5 2 3 3 7 6 5 3 6 7 10 10
11 13 13 14 14 14 15 14 15 15 16 15 7 2 3 1 3 4 2 2 2 4 1 1 0 2 0 0 1 2 3 1 2 1 4 1 0 3 1 2 1 1 0 1 2 0 1 0 1 0 0 1 1 1 1 0 1 1 0 1 1 1 1 1 2 3 1 1 1 1 1 4 5 6 2 4 2 8 9 4 6 1 3 4 7 4 8
11 13 13 13 14 14 14 14 14 14 14 15 9 1 0 3 2 4 2 1 1 1 2 1 1 2 4 2 2 3 1 3 6 5 7 3 2 0 2 3 1 1 1 3 2 1 1 1 0 1 1 1 2 2 1 1 1 1 1 0 1 1 0 3 0 2 1 1 2 2 2 3 4 2 3 4 9 7 8 5 5 2 1 2 4 7 6
12 13 13 13 13 14 13 13 13 13 13 14 8 3 1 6 7 6 1 1 1 1 2 2 2 2 2 1 0 3 3 1 5 4 5 7 1 1 1 1 0 1 1 0 2 4 2 4 0 3 2 0 2 1 1 1 0 1 1 1 2 0 0 1 1 2 2 2 4 3 2 4 8 5 3 5 8 9 7 7 3 2 2 1 4 4 3
13 13 13 13 13 13 13 12 12 12 12 12 8 2 3 3 5 6 4 3 2 1 1 3 4 1 1 1 4 6 3 2 1 0 2 6 5 0 1 1 1 2 1 0 3 3 3 2 1 1 1 1 2 1 1 1 0 1 0 1 1 2 0 1 1 2 2 1 3 7 6 3 4 7 8 7 8 6 6 7 7 4 4 6 5 4 5
13 12 13 13 13 13 13 12 11 11 10 11 8 2 3 3 1 3 1 0 2 2 2 2 2 2 3 4 2 0 0 0 1 4 4 3 6 5 3 1 2 2 3 2 1 6 3 2 0 1 2 1 2 1 1 1 1 1 1 2 2 1 1 1 0 0 1 1 2 5 4 3 1 5 8 10 11 12 8 6 6 4 6 8 7 8 8
13 13 13 13 13 13 13 12 11 10 9 10 8 3 2 3 3 2 1 2 2 3 4 0 0 2 3 2 2 1 2 2 5 8 5 2 2 6 9 2 3 3 4 2 4 5 3 3 3 1 2 1 1 1 2 3 2 0 1 1 1 2 4 0 1 1 6 2 2 8 3 3 3 8 6 5 6 7 8 9 8 8 6 10 11 8 8
13 14 13 13 13 13 13 12 11 10 9 7 4 0 1 4 3 2 2 1 1 2 2 2 2 5 4 4 3 3 2 3 6 7 7 7 8 6 6 5 7 4 5 4 3 4 4 2 2 1 1 1 1 1 1 0 1 1 0 1 3 1 0 1 1 1 2 1 3 5 4 4 9 7 7 8 8 5 8 9 9 8 6 7 5 9 7
11 12 13 13 13 13 12 11 11 9 8 8 3 1 2 1 2 2 1 1 2 2 2 1 1 2 2 1 4 4 4 4 7 8 7 7 8 8 7 6 4 4 2 2 1 3 2 1 1 1 1 0 1 0 0 0 1 3 2 2 1 1 1 1 1 1 1 1 2 1 2 5 7 5 5 5 5 6 10 8 7 7 5 5 3 5 9
12 12 11 11 13 12 11 11 11 10 10 7 1 1 0 3 2 3 3 0 1 3 2 1 1 3 1 2 4 6 6 4 7 8 8 7 8 7 7 6 5 3 3 4 4 3 3 1 1 2 1 1 2 1 1 0 1 1 1 0 0 1 2 1 1 2 4 2 2 3 1 3 4 4 3 4 3 4 7 5 6 7 7 6 6 3 3
11 10 9 9 12 11 10 10 10 11 10 4 2 2 1 0 0 3 4 3 1 1 1 1 3 0 2 2 2 3 3 5 7 9 9 7 7 6 3 4 4 3 4 2 2 2 1 3 1 0 1 1 1 1 2 1 1 1 2 2 2 2 1 2 2 3 3 1 2 3 4 7 5 4 3 3 3 2 3 4 5 7 8 7 6 4 4
9 8 9 10 12 11 9 9 9 10 8 3 3 2 2 1 0 1 5 4 3 2 2 2 1 1 2 0 1 3 2 3 6 7 6 5 4 3 1 4 3 2 2 3 4 0 1 2 1 1 1 1 2 2 3 3 1 2 1 1 2 2 2 2 2 3 3 4 4 4 3 4 5 4 1 2 4 5 2 0 2 6 8 9 7 5 3
9 8 10 11 12 11 10 9 9 8 3 2 1 1 1 1 1 5 5 3 1 2 1 2 1 1 0 1 1 1 2 3 2 2 2 2 3 3 5 5 1 2 3 4 2 1 1 0 1 0 1 1 5 3 3 2 1 2 2 4 3 2 2 2 2 1 1 2 2 3 2 4 3 4 5 6 6 3 4 3 1 3 7 8 6 6 6
9 8 9 12 12 11 10 9 8 6 3 5 9 9 11 13 13 10 3 1 2 1 2 3 2 1 1 2 2 1 1 2 3 3 1 1 1 1 2 3 3 4 3 3 1 1 1 2 1 2 0 1 2 2 3 3 3 1 2 4 3 2 2 1 0 0 1 2 1 1 2 3 5 6 5 6 5 5 5 3 1 1 4 5 7 7 8
8 8 10 13 12 11 10 10 8 6 2 2 2 3 2 2 1 2 2 2 2 0 2 2 1 2 1 3 3 3 1 2 1 1 2 1 1 3 0 2 3 1 3 2 1 2 1 1 2 0 1 2 2 2 1 4 4 3 2 2 1 2 1 1 3 4 3 3 2 0 1 4 5 3 4 5 7 6 5 4 4 3 1 2 3 4 5
9 9 11 13 12 10 9 6 3 3 1 1 0 2 1 2 3 1 1 1 2 2 2 1 2 3 1 1 0 3 0 2 1 1 3 1 1 1 1 2 3 2 1 2 3 1 1 1 4 3 1 1 3 0 4 5 3 2 0 1 2 2 2 3 3 2 2 1 2 3 3 3 5 6 5 6 7 7 6 6 5 4 5 3 2 3 6
11 13 14 13 10 5 1 0 2 2 3 1 1 2 3 1 3 3 2 2 3 4 2 1 0 1 4 4 2 1 1 2 1 1 0 1 1 2 2 2 1 0 0 2 2 1 1 0 1 0 1 2 4 5 5 6 5 3 2 1 1 1 1 2 2 3 3 1 3 3 5 5 5 3 4 4 5 6 6 6 6 5 4 5 4 1 1
12 14 14 10 3 1 3 0 1 1 0 3 2 1 3 1 1 2 4 3 2 2 3 2 1 3 3 2 1 2 2 3 1 2 1 1 2 1 2 2 1 0 1 2 1 1 0 1 3 1 0 3 3 5 5 6 6 5 2 2 1 2 1 1 2 1 2 3 5 4 3 3 4 3 4 5 5 4 6 7 6 5 5 6 5 3 1
13 10 2 0 1 1 1 1 1 4 4 4 4 1 3 3 1 3 3 3 2 1 2 2 0 1 0 1 1 1 1 0 2 2 1 1 2 0 1 2 2 1 1 0 1 2 2 3 1 2 5 5 4 4 5 5 5 3 3 2 2 2 3 3 5 4 2 2 2 3 4 4 3 3 3 5 4 5 4 3 4 4 3 4 4 4 3
3 2 1 2 2 1 1 1 2 6 1 1 1 0 1 1 2 2 1 1 1 1 1 1 2 2 2 1 1 1 1 4 2 2 2 1 1 1 0 0 1 1 1 1 1 1 1 2 1 2 5 4 1 5 5 6 4 4 4 4 3 4 4 4 3 3 2 1 1 2 1 0 1 3 3 3 3 3 3 3 4 4 4 4 5 5 3
1 0 1 1 1 1 2 3 6 2 2 0 1 1 0 1 2 1 1 1 1 2 0 1 3 4 4 4 5 2 0 1 2 2 3 0 0 1 0 1 0 1 1 1 2 1 2 1 1 2 6 4 6 4 5 5 4 4 3 4 4 4 4 4 3 2 3 3 3 2 3 3 3 2 1 3 2 3 5 4 3 4 4 4 4 3 4
2 1 1 1 1 1 2 4 3 1 1 2 2 4 2 0 0 1 1 1 1 2 1 1 0 0 0 1 1 2 1 2 1 2 4 2 1 2 2 0 1 1 1 1 1 2 2 2 1 2 7 4 5 6 6 5 5 4 3 3 2 2 1 0 0 1 2 2 2 2 3 2 3 3 3 3 2 3 3 4 4 5 4 4 4 4 5
0 0 1 1 1 1 2 1 2 1 1 1 3 1 1 2 1 1 1 1 1 1 1 1 0 2 2 5 4 3 0 1 1 1 1 1 1 1 1 0 1 1 1 2 2 3 2 0 2 5 7 5 3 4 6 6 4 4 2 2 3 3 2 2 2 2 1 1 3 3 3 3 3 3 3 2 3 3 4 4 5 4 4 4 3 4 4
5 3 1 1 0 1 1 1 2 2 1 1 2 1 1 1 1 1 1 1 1 1 1 0 0 1 0 1 2 0 1 1 1 0 1 0 0 2 2 1 1 0 2 1 1 2 1 2 4 8 6 4 5 6 5 5 4 4 3 3 3 3 3 3 2 1 0 0 1 1 2 3 3 3 2 3 3 4 4 4 4 4 4 4 4 4 4
0 0 1 3 2 1 0 0 0 1 1 1 1 1 0 0 1 1 0 2 1 1 2 2 2 2 2 1 2 0 0 1 2 2 1 0 1 0 1 1 2 1 1 1 1 2 4 4 7 4 2 3 4 4 4 5 5 5 4 2 2 2 2 3 2 1 2 1 1 2 1 2 3 4 3 3 2 3 5 6 5 4 4 3 3 4 5
1 2 3 1 1 1 1 1 2 3 1 2 3 1 2 1 1 2 2 2 1 1 1 1 3 2 1 1 1 0 1 1 1 1 1 1 1 1 1 2 2 1 1 2 1 1 2 6 6 2 4 5 6 4 5 6 6 7 5 3 2 2 2 1 1 1 2 2 4 3 4 4 4 5 5 5 5 3 3 5 6 5 6 4 4 4 5
1 2 1 2 2 2 1 0 0 0 2 3 3 6 3 5 3 2 4 0 0 1 1 1 1 2 1 0 2 2 0 2 1 1 1 1 1 2 2 0 1 1 0 0 1 4 7 7 5 7 7 7 6 5 5 5 4 4 6 4 2 1 0 0 0 1 2 3 3 2 3 3 3 5 6 7 6 7 6 6 5 5 5 5 5 5 5
1 1 2 1 2 1 0 1 2 3 1 2 5 5 5 4 5 3 1 2 2 3 2 1 1 2 1 1 1 1 1 1 1 1 2 1 2 0 1 1 1 1 2 2 4 6 6 7 6 5 6 6 5 5 5 5 4 4 4 4 3 0 0 0 1 1 2 1 1 2 2 3 3 4 4 5 6 6 6 6 7 5 4 6 7 5 4
1 1 1 1 2 1 1 3 2 3 3 4 3 3 3 0 1 3 3 3 2 2 2 2 0 0 1 2 1 2 1 0 1 2 1 1 1 1 0 0 2 2 2 3 6 6 5 4 5 7 7 7 8 7 5 5 4 4 4 4 3 3 2 2 1 1 1 1 2 3 3 3 3 3 4 5 6 6 6 6 6 5 5 5 6 6 5
2 2 1 2 2 2 2 2 2 4 6 3 3 1 1 1 4 6 4 1 2 3 4 3 1 2 1 0 2 1 1 0 1 2 1 1 1 2 2 2 1 2 5 6 6 5 5 5 4 6 7 7 6 7 6 5 6 5 5 5 4 4 3 3 2 2 2 2 2 3 3 3 3 4 5 5 6 7 5 5 6 6 6 6 6 6 6
0 1 1 1 1 3 2 0 0 4 5 5 2 1 1 1 4 6 3 3 1 3 1 1 1 1 1 1 0 1 1 1 2 0 1 2 2 1 1 2 3 4 2 3 4 5 4 4 7 7 7 7 6 6 6 4 4 4 3 4 3 3 3 2 1 1 2 2 3 3 4 3 4 4 5 6 7 7 7 7 7 7 7 7 6 7 7
1 0 2 2 3 3 2 1 2 1 4 5 3 3 2 2 3 2 2 4 4 2 1 2 1 1 1 1 1 0 2 1 2 3 3 4 2 3 3 3 5 6 6 5 3 3 5 6 7 8 7 6 6 6 5 5 4 4 5 4 4 3 2 1 1 2 3 3 2 4 4 5 4 5 5 5 6 6 7 8 7 6 7 7 6 7 7
0 0 1 2 1 3 3 1 0 5 7 6 4 5 3 2 4 4 1 5 4 3 3 2 2 1 1 2 4 2 0 1 0 1 1 3 2 2 3 6 4 5 6 4 4 3 5 5 6 9 9 8 7 6 5 4 4 4 3 3 3 1 0 1 2 2 2 3 3 3 4 4 5 4 4 5 5 7 8 8 7 6 6 6 6 6 7
Wind_Direction
340 339 340 340 340 342 343 344 345 348 348 17 359 291 22 57 183 256 11 314 103 65 51 288 38 349 227 267 9 323 27 85 286 38 358 28 56 31 44 335 57 15 151 43 50 76 78 16 44 328 260 246 256 303 312 258 69 88 337 29 290 114 56 22 299 315 300 314 325 355 41 111 33 20 60 80 174 172 165 173 174 132 160 75 14 110 248
340 340 342 341 342 342 344 345 348 350 2 1 312 68 105 164 254 322 279 62 116 74 348 333 315 296 312 64 144 313 116 48 5 27 355 50 351 64 1 352 69 44 45 70 38 324 90 22 76 20 39 58 283 326 6 11 53 57 294 97 293 54 338 102 347 6 341 340 348 357 340 48 79 309 307 94 86 72 103 100 47 109 208 166 136 210 250
342 343 343 343 343 343 343 346 348 355 352 1 356 66 169 131 268 227 302 356 62 62 187 139 150 355 14 11 32 344 30 29 128 80 22 337 25 63 4 78 302 19 34 80 77 35 100 133 360 95 332 271 305 340 20 31 61 323 232 247 277 79 314 74 109 138 167 176 7 343 323 299 298 262 337 30 121 135 115 104 30 106 216 117 140 201 263
344 345 345 345 345 344 343 345 349 355 354 346 44 151 41 22 136 312 339 8 22 63 50 111 141 110 144 48 332 71 57 335 7 101 74 83 31 80 252 345 53 34 29 35 25 6 15 76 327 37 339 321 319 307 334 48 29 353 66 30 87 113 64 79 139 138 164 203 222 264 248 346 2 306 355 334 69 25 89 105 104 181 185 185 234 157 151
345 347 348 347 347 345 343 344 348 357 354 296 117 49 97 143 81 349 339 338 36 38 16 17 28 163 147 83 328 18 5 248 347 17 87 11 53 47 46 355 43 330 58 42 45 9 347 357 75 7 333 276 258 299 313 6 17 349 5 10 83 65 50 3 84 76 158 184 205 248 186 212 258 4 325 334 215 140 112 135 206 164 111 249 262 175 154
347 349 351 351 349 347 345 344 347 355 1 216 211 49 6 69 261 105 190 121 289 35 343 33 355 38 76 102 50 2 43 32 73 331 59 121 34 90 344 25 38 311 137 113 63 333 1 15 21 320 328 345 331 3 353 52 344 13 18 3 98 127 95 300 61 301 205 211 277 9 35 254 43 48 1 343 316 209 161 204 166 147 157 197 196 172 175
347 351 353 353 351 349 348 346 346 351 359 174 67 93 322 114 166 151 285 103 249 168 270 322 316 55 62 95 57 39 60 56 28 147 327 25 358 66 95 352 347 1 14 102 106 35 64 347 323 59 320 28 333 11 340 329 12 24 20 20 110 84 22 275 117 268 352 20 13 26 41 2 36 43 29 16 20 306 143 119 161 134 115 204 166 166 97
349 352 354 355 353 351 351 350 349 348 350 195 63 60 78 2 41 311 6 89 111 288 14 54 58 71 342 85 326 110 8 68 340 17 75 45 337 25 88 184 13 31 38 68 86 21 157 146 38 274 100 331 56 32 189 279 324 28 27 351 353 102 315 353 346 44 327 355 359 21 28 54 358 14 29 23 6 16 3 90 122 97 41 67 122 121 113
350 352 354 356 355 354 354 354 356 349 351 54 53 52 56 257 159 152 76 37 315 358 26 48 81 73 349 79 215 71 354 86 101 74 316 110 99 28 150 169 83 17 51 52 78 217 201 201 225 247 161 58 266 89 291 166 327 348 7 13 328 59 328 50 36 76 310 355 355 355 358 28 105 15 8 3 2 6 329 347 250 122 143 132 115 124 155
351 351 354 357 357 357 356 359 1 358 347 106 71 30 299 38 272 81 113 83 338 42 330 7 64 24 227 152 223 146 232 210 102 67 3 43 35 182 156 170 101 12 42 16 308 276 201 220 228 223 222 236 274 231 221 133 56 335 70 359 50 42 90 30 22 70 269 299 329 347 12 23 13 356 338 321 279 207 259 258 18 255 146 137 161 211 165
350 351 354 358 359 358 358 2 5 11 10 59 65 37 354 30 341 355 44 79 341 40 82 19 93 209 50 10 85 49 116 105 122 111 276 22 356 98 120 117 99 129 78 289 259 222 229 225 281 180 106 19 312 336 355 13 189 188 155 60 41 65 87 110 155 86 267 317 321 351 46 30 256 235 273 229 257 261 61 323 57 60 18 209 140 110 135
351 352 353 357 360 359 358 0 5 15 31 353 322 136 233 112 97 92 79 92 321 355 92 96 148 303 104 360 101 109 77 64 357 149 125 235 277 121 82 60 90 24 249 257 333 331 157 37 33 41 78 16 37 42 56 54 4 357 166 130 121 82 78 105 146 81 296 321 358 100 241 237 236 300 356 12 302 110 119 97 68 3 2 41 106 122 131
351 352 353 356 359 360 357 359 2 7 17 12 166 33 312 161 157 131 125 110 72 330 34 16 327 76 95 91 82 39 72 251 63 113 94 119 3 20 7 111 102 244 300 360 9 45 68 307 333 324 305 349 357 30 26 15 6 357 33 69 114 95 98 164 48 99 21 44 33 151 233 235 282 333 28 12 82 44 56 45 351 8 4 120 124 136 132
351 352 353 356 359 359 358 358 359 2 8 14 160 256 286 7 63 64 72 96 17 279 159 21 23 35 50 62 105 93 15 36 342 50 73 4 88 16 331 141 305 275 335 115 54 72 53 38 34 25 330 7 4 38 328 329 35 27 1 360 52 130 105 91 89 17 190 196 165 215 297 328 357 22 9 19 350 333 32 318 283 319 305 113 130 127 129
349 352 353 356 357 358 359 359 358 0 4 1 172 304 327 355 100 126 169 88 131 42 107 120 256 314 4 30 78 71 49 325 59 21 282 292 69 246 172 303 319 357 74 78 27 38 122 100 27 34 335 46 133 190 329 29 309 48 22 13 48 78 100 229 101 302 116 140 13 353 360 242 267 167 296 274 260 266 230 140 290 317 320 144 136 140 137
350 351 353 355 357 357 358 359 360 358 6 3 60 3 287 320 113 97 113 134 116 50 313 233 199 170 84 42 25 115 143 72 44 351 357 339 294 332 308 315 316 47 50 68 77 92 44 91 184 86 64 264 248 54 326 342 357 310 18 19 51 30 76 101 111 143 41 42 129 213 171 245 223 310 316 304 315 308 268 64 305 256 174 138 135 142 149
350 350 353 354 357 357 357 358 359 360 5 15 352 335 327 29 28 44 85 41 79 169 236 121 105 113 87 24 24 33 79 90 164 87 10 335 304 285 297 337 330 48 63 75 11 60 33 44 76 129 278 229 52 229 352 48 3 330 333 5 26 27 1 28 36 33 82 129 88 272 202 271 351 313 315 314 313 324 66 36 286 259 170 145 144 151 155
348 349 352 353 356 357 357 357 359 358 4 4 357 318 295 331 37 143 57 106 105 22 278 173 127 74 85 178 138 216 75 45 33 32 110 277 336 1 315 0 351 334 81 83 22 66 68 67 46 82 79 267 161 63 86 193 55 285 319 360 342 355 347 46 134 153 66 100 270 316 312 304 321 315 316 313 301 45 111 186 243 297 225 161 147 151 158
347 350 352 352 355 357 357 356 357 358 3 5 345 116 257 296 345 71 122 76 81 105 271 278 199 148 159 98 102 148 164 114 140 101 360 21 66 262 235 242 72 333 4 123 63 82 103 339 94 118 115 318 29 141 228 52 258 276 47 23 4 353 97 344 70 51 222 206 143 229 244 241 292 311 303 280 4 104 204 229 212 245 203 185 158 150 155
351 352 351 351 354 355 356 356 355 357 3 11 16 206 271 318 329 20 42 121 98 107 286 348 54 59 223 119 95 63 29 23 40 123 152 125 290 36 26 13 327 76 355 61 49 216 95 116 195 124 46 180 305 160 56 296 316 65 65 198 119 232 102 232 55 192 68 44 54 14 177 287 19 327 336 26 29 239 264 310 295 219 214 158 157 152 150
352 350 349 350 352 353 354 355 355 356 1 9 18 28 356 320 348 15 29 138 118 91 339 298 87 277 152 77 232 156 136 155 180 86 212 153 193 88 107 191 258 56 180 110 123 359 144 129 241 176 242 117 280 50 166 67 342 278 180 190 137 190 65 310 284 192 152 91 135 174 216 268 328 27 19 315 299 296 299 300 294 292 141 171 141 153 158
349 347 348 347 350 351 352 354 355 355 1 7 10 79 355 276 350 353 330 95 102 148 198 237 250 246 243 244 231 173 164 164 202 153 137 109 342 153 181 125 168 129 195 121 47 33 4 158 75 64 92 14 13 100 157 74 139 265 324 77 21 267 156 179 124 255 112 206 210 252 242 250 303 329 255 277 297 299 286 252 263 254 181 121 139 156 167
347 342 343 344 346 350 350 351 353 355 358 4 18 82 226 311 330 335 335 49 328 326 338 5 346 312 313 273 217 218 217 135 120 103 128 115 59 29 86 93 15 197 78 93 174 153 179 124 139 152 88 133 140 115 6 113 195 325 89 266 158 5 215 166 89 267 284 247 214 285 333 360 345 347 342 327 333 333 338 316 282 2 329 357 141 109 94
344 336 338 341 343 346 347 347 351 353 356 1 17 2 316 286 285 340 8 67 113 127 356 15 73 24 322 328 330 358 38 19 339 153 169 120 108 325 335 266 144 53 26 223 176 132 187 113 164 134 109 234 83 69 145 336 302 187 104 355 356 278 260 77 57 306 47 182 309 11 339 322 360 349 353 3 359 340 345 353 349 349 35 52 79 115 134
338 333 336 338 340 341 344 343 346 348 351 356 357 329 255 304 344 19 57 104 341 94 141 316 12 246 253 257 239 316 13 151 118 89 61 78 130 142 164 174 167 145 190 186 119 62 43 111 87 54 106 244 113 278 266 96 301 128 40 270 358 345 191 56 330 319 109 254 332 316 289 227 119 51 21 360 343 344 359 17 2 350 75 70 57 70 65
336 333 334 337 337 338 339 339 340 342 344 349 3 16 31 273 303 311 106 58 108 115 106 74 276 317 327 49 40 311 295 50 66 57 50 103 134 122 143 133 40 34 96 90 76 95 115 59 83 112 111 278 91 129 198 200 167 144 142 224 209 259 338 246 332 308 286 317 323 335 318 218 6 20 29 5 345 334 6 11 16 6 35 86 79 63 65
332 331 332 334 335 336 338 336 338 338 338 337 348 151 235 279 280 345 52 278 87 26 50 134 276 306 14 18 325 356 3 62 68 71 61 48 74 76 83 91 97 41 58 41 40 111 68 93 96 170 154 183 110 146 145 67 122 162 205 284 318 13 26 280 44 18 351 39 305 356 24 315 326 338 352 346 343 5 28 20 18 10 15 345 108 127 118
328 331 330 333 334 335 335 335 340 342 338 339 336 281 230 260 299 282 284 153 40 173 164 173 36 290 304 6 360 26 11 57 86 80 74 63 63 71 84 91 93 74 29 79 41 31 37 77 64 190 137 283 74 321 23 129 74 45 22 288 303 72 273 93 27 155 263 256 257 237 213 251 256 265 308 331 330 44 45 25 13 15 11 32 24 107 130
325 331 332 331 331 333 330 332 343 347 348 341 332 98 133 247 275 324 346 350 103 100 97 223 305 17 120 241 336 27 11 50 83 88 82 67 61 60 69 65 79 129 90 70 88 101 100 132 197 103 64 202 101 304 20 331 54 213 224 247 281 243 166 168 257 233 268 254 264 290 232 263 292 319 323 303 320 51 68 41 41 30 24 36 41 358 145
323 327 329 327 329 329 327 330 343 353 350 356 54 51 37 354 310 26 359 32 69 123 82 90 93 235 303 353 3 359 31 42 70 75 75 75 62 54 37 77 58 57 89 121 144 99 202 130 302 282 314 38 127 168 76 171 120 242 257 258 258 319 285 239 206 194 252 323 317 277 256 270 267 270 263 270 307 343 69 70 46 43 29 43 58 47 356
317 323 323 325 326 326 322 325 334 351 6 357 76 56 44 55 322 140 5 8 6 106 120 98 116 281 33 330 92 26 48 75 75 80 71 78 84 77 3 76 45 58 55 357 45 106 143 38 71 349 331 40 101 105 165 136 247 308 262 286 279 285 281 281 254 239 256 289 286 271 263 272 292 305 300 320 335 326 315 127 62 67 69 50 46 70 53
314 322 320 317 324 321 317 317 326 343 356 32 82 158 170 192 275 307 332 327 346 57 60 78 24 32 271 323 339 292 66 44 67 41 22 41 21 12 38 60 103 7 110 109 159 65 44 187 103 88 74 339 69 102 69 91 161 235 283 318 299 280 264 281 332 324 309 255 299 344 345 328 13 48 299 313 319 319 322 313 17 78 77 92 78 49 63
310 311 315 315 319 318 316 313 318 320 291 263 270 278 271 270 268 270 282 307 54 88 120 83 125 193 121 216 318 355 54 43 31 36 76 330 158 51 46 10 37 47 8 83 356 122 217 116 220 66 283 40 87 101 111 184 213 233 249 279 297 305 305 298 228 29 15 348 18 110 268 283 293 312 300 298 314 328 327 334 300 348 32 56 56 51 38
309 307 308 314 314 314 316 314 309 308 297 332 67 30 327 323 94 181 162 90 98 131 72 111 86 93 201 313 111 256 68 144 204 60 99 354 152 70 66 43 1 78 348 82 235 71 339 85 100 203 336 26 42 77 313 262 240 257 291 291 296 329 10 35 38 35 4 354 353 346 259 258 273 290 341 353 344 339 334 319 341 350 61 112 90 99 86
309 306 307 312 313 312 316 328 9 54 77 302 242 263 281 308 168 184 133 98 77 347 22 23 109 89 37 20 82 262 122 107 202 240 131 284 4 148 207 69 332 85 280 81 47 102 131 218 177 95 200 344 38 4 242 239 266 275 320 351 347 6 34 32 347 333 328 348 19 21 359 13 40 21 360 351 350 350 360 348 353 6 337 330 155 149 134
316 313 311 308 312 297 279 307 44 26 32 13 265 257 223 208 51 43 52 85 118 152 94 238 61 169 143 155 188 242 92 53 14 42 98 145 33 30 92 110 76 310 299 68 200 19 159 299 75 247 317 70 231 195 228 192 181 206 214 196 244 164 175 192 244 309 329 5 57 33 26 36 53 14 356 354 359 355 355 0 360 3 357 335 327 15 33
314 312 310 303 295 83 38 54 296 107 232 243 256 216 213 169 360 47 14 27 350 91 133 160 73 222 157 196 258 274 91 163 350 52 355 90 180 290 59 46 152 114 49 7 27 133 253 60 100 115 58 177 247 223 210 184 171 168 194 207 205 205 208 212 203 164 18 11 13 15 37 29 14 8 9 0 351 348 5 6 346 347 331 315 304 307 209
312 315 321 38 51 48 31 340 314 271 297 338 30 23 350 30 38 344 359 36 279 31 351 67 187 247 351 97 164 246 79 236 44 128 318 236 94 119 56 107 222 140 232 226 245 178 94 40 48 154 260 252 257 263 235 212 211 201 188 196 209 204 178 167 145 100 67 23 355 344 356 11 358 324 14 339 340 340 332 313 319 320 304 296 288 267 217
355 304 34 24 94 126 177 216 328 340 326 296 62 65 323 15 60 15 344 301 21 21 291 108 243 179 124 70 291 299 160 158 78 35 145 263 124 287 51 124 271 78 325 17 273 157 328 328 10 26 276 273 288 236 212 209 214 201 200 201 191 194 182 177 171 135 153 176 203 216 180 235 296 296 306 307 308 293 276 302 320 329 328 318 313 303 278
40 33 110 44 115 215 283 321 360 25 66 58 326 98 302 331 88 273 301 41 346 282 110 260 211 169 181 164 163 219 275 72 123 223 177 267 349 149 255 95 273 110 224 153 242 52 120 236 270 44 290 241 231 235 182 182 177 198 198 196 195 197 191 165 186 204 168 188 184 197 195 196 183 193 218 258 273 296 313 316 307 308 324 318 313 303 270
23 80 30 97 256 286 292 299 323 61 65 30 9 2 65 346 291 186 83 56 188 241 207 163 24 84 23 92 95 175 292 78 159 133 116 126 244 86 66 142 222 94 266 240 266 83 73 83 4 192 244 226 212 179 166 155 180 194 198 177 171 149 149 122 119 241 160 187 216 241 236 221 205 203 207 211 217 241 262 276 290 293 302 314 320 306 291
291 253 265 296 275 279 324 14 64 55 11 111 115 283 205 222 302 360 139 136 255 249 300 141 298 187 231 183 193 142 110 184 132 115 96 102 276 130 190 230 13 113 248 241 128 53 78 195 282 278 256 246 230 154 140 164 191 159 131 123 143 145 115 87 76 40 8 297 306 312 321 326 284 281 267 257 250 240 251 268 280 288 283 280 289 296 294
301 284 168 5 18 353 65 65 322 91 92 346 41 9 355 55 223 165 278 266 309 130 258 353 249 167 228 87 53 328 186 191 117 5 70 177 301 55 95 27 68 303 230 65 74 65 92 226 239 248 247 223 181 171 180 160 138 124 133 126 122 134 127 115 106 105 20 36 322 308 307 330 312 287 289 299 304 305 278 259 247 252 267 274 283 290 293
204 125 10 340 65 304 37 30 300 52 3 53 101 198 253 339 301 49 325 270 225 267 240 141 214 129 217 304 147 204 24 360 45 82 45 343 90 142 67 195 217 236 37 49 75 172 225 234 220 230 247 202 180 178 154 143 140 131 122 109 93 92 92 105 71 46 355 339 336 318 311 307 306 318 324 318 293 274 288 290 286 264 257 253 274 279 281
62 359 27 23 36 277 65 260 355 110 213 246 172 201 170 109 238 182 189 245 125 265 278 89 118 110 175 257 56 14 125 171 325 103 225 119 44 350 121 248 229 62 135 218 271 305 332 269 253 213 227 194 194 185 166 156 157 151 153 130 75 72 79 68 349 348 305 323 320 342 333 327 331 317 310 301 296 266 254 273 281 298 296 287 274 279 279
100 162 91 86 333 315 94 212 360 349 273 159 198 200 173 231 172 227 251 143 140 151 151 184 97 100 191 232 154 213 48 102 91 222 147 74 113 238 235 160 84 86 355 49 217 228 222 233 228 206 196 185 176 174 160 162 153 133 119 136 187 153 117 150 255 258 265 293 310 333 313 325 318 319 311 305 298 299 290 275 273 267 277 289 275 264 268
44 8 85 113 107 271 78 191 229 208 174 207 219 195 201 213 203 204 225 170 195 201 140 160 147 166 156 194 137 347 57 84 144 249 76 102 196 247 2 117 238 186 171 232 241 248 262 253 234 202 173 169 158 154 154 150 150 144 148 151 154 175 186 161 218 245 263 237 262 282 281 272 276 273 281 291 294 287 282 282 282 275 260 258 263 256 251
173 248 99 118 230 178 153 246 218 290 247 216 239 202 230 235 346 299 255 207 202 139 147 118 140 15 292 306 94 192 210 127 124 263 179 180 49 42 18 349 254 245 190 182 230 221 233 248 207 177 174 165 155 152 158 156 162 160 158 163 183 182 197 209 226 257 240 235 253 252 251 260 266 279 288 285 284 281 282 283 280 282 275 270 268 262 248
145 117 156 193 196 163 225 252 38 325 280 293 279 257 175 153 231 249 242 177 159 194 182 135 201 118 251 212 129 111 242 223 155 240 83 50 143 203 164 225 197 280 253 191 223 214 223 226 175 146 145 149 158 155 163 169 166 170 170 176 184 191 198 201 219 239 249 256 255 272 295 297 305 308 308 303 300 292 283 276 276 274 267 267 265 263 258
72 332 39 71 353 297 252 110 53 284 305 324 355 306 238 219 256 268 185 164 204 106 64 20 30 106 240 141 217 358 257 242 179 50 74 195 203 173 89 271 228 198 251 239 223 238 213 168 135 141 154 156 159 160 159 178 171 173 200 197 190 192 197 206 242 259 277 284 291 286 282 293 299 299 298 291 284 285 291 287 279 271 268 261 253 254 252
5 123 228 190 175 220 152 219 198 238 304 285 268 262 183 231 223 258 209 140 118 87 75 178 197 112 139 40 65 342 250 183 116 179 166 199 183 141 187 207 238 212 229 231 221 208 166 164 150 147 153 160 163 167 167 164 168 186 196 196 205 203 212 195 227 285 303 306 300 313 315 302 282 276 279 280 286 292 291 289 283 273 270 266 253 248 251
52 321 266 285 233 218 207 217 223 223 237 252 259 251 158 253 239 242 185 113 111 139 220 195 110 82 77 194 215 197 32 49 181 68 335 261 156 149 213 201 227 221 213 215 226 177 162 172 161 155 158 162 165 171 168 164 174 190 199 216 200 188 298 342 319 311 303 313 313 301 291 284 290 290 301 307 304 304 304 302 299 287 272 264 259 251 245